| time (UTC) | temp F | wind direction | speed MPH | gust MPH | rain 1hr in | rain 24hr in | rain mn in | humidity % | barometer mb |
| 20260506112514 | 58 | 335 | 7.0 | 16.0 | 0.00 | 0.00 | 0.00 | 82 | 1009.3 |
| 20260506112010 | 59 | 340 | 8.0 | 15.0 | 0.00 | 0.00 | 0.00 | 82 | 1009.4 |
| 20260506111512 | 59 | 333 | 9.0 | 15.0 | 0.00 | 0.00 | 0.00 | 82 | 1009.1 |
| 20260506111007 | 59 | 360 | 7.0 | 14.0 | 0.00 | 0.00 | 0.00 | 81 | 1009.1 |
| 20260506110509 | 59 | 35 | 8.0 | 14.0 | 0.00 | 0.00 | 0.00 | 81 | 1008.9 |
| 20260506110006 | 60 | 40 | 8.0 | 13.0 | 0.00 | 0.00 | 0.00 | 81 | 1008.8 |
| 20260506105505 | 60 | 332 | 6.0 | 11.0 | 0.00 | 0.00 | 0.00 | 80 | 1009.0 |
| 20260506105007 | 60 | 20 | 6.0 | 12.0 | 0.00 | 0.00 | 0.00 | 80 | 1008.9 |
| 20260506104502 | 60 | 331 | 6.0 | 12.0 | 0.00 | 0.00 | 0.00 | 80 | 1008.5 |
| 20260506104101 | 60 | 9 | 6.0 | 11.0 | 0.00 | 0.00 | 0.00 | 81 | 1008.6 |
| 20260506103530 | 61 | 301 | 5.0 | 11.0 | 0.00 | 0.00 | 0.00 | 81 | 1008.5 |
| 20260506103029 | 61 | 329 | 5.0 | 11.0 | 0.00 | 0.00 | 0.00 | 82 | 1008.4 |
| 20260506102529 | 61 | 25 | 3.0 | 8.0 | 0.00 | 0.00 | 0.00 | 82 | 1008.3 |
| 20260506102028 | 61 | 42 | 3.0 | 10.0 | 0.00 | 0.00 | 0.00 | 82 | 1008.3 |
| 20260506101529 | 61 | 42 | 6.0 | 10.0 | 0.00 | 0.00 | 0.00 | 82 | 1008.3 |
| 20260506101026 | 61 | 9 | 5.0 | 10.0 | 0.00 | 0.00 | 0.00 | 81 | 1008.1 |
| 20260506100522 | 62 | 360 | 6.0 | 11.0 | 0.00 | 0.00 | 0.00 | 81 | 1008.0 |
| 20260506100021 | 62 | 360 | 6.0 | 11.0 | 0.00 | 0.00 | 0.00 | 80 | 1007.9 |
| 20260506095520 | 62 | 36 | 4.0 | 11.0 | 0.00 | 0.00 | 0.00 | 80 | 1007.9 |
| 20260506095022 | 63 | 360 | 6.0 | 11.0 | 0.00 | 0.00 | 0.00 | 79 | 1007.9 |
| 20260506094517 | 63 | 41 | 7.0 | 11.0 | 0.00 | 0.00 | 0.00 | 78 | 1007.9 |
| 20260506094016 | 63 | 19 | 4.0 | 11.0 | 0.00 | 0.00 | 0.00 | 77 | 1007.8 |
| 20260506093515 | 64 | 35 | 6.0 | 11.0 | 0.00 | 0.00 | 0.00 | 77 | 1007.8 |
| 20260506093016 | 64 | 54 | 5.0 | 9.0 | 0.00 | 0.00 | 0.00 | 77 | 1007.7 |
| 20260506092514 | 64 | 343 | 5.0 | 9.0 | 0.00 | 0.00 | 0.00 | 78 | 1007.8 |
| 20260506092014 | 64 | 15 | 5.0 | 11.0 | 0.00 | 0.00 | 0.00 | 78 | 1007.8 |
| 20260506091513 | 64 | 19 | 6.0 | 11.0 | 0.00 | 0.00 | 0.00 | 78 | 1007.6 |
| 20260506091011 | 64 | 19 | 5.0 | 9.0 | 0.00 | 0.00 | 0.00 | 78 | 1007.7 |
| 20260506090510 | 64 | 47 | 4.0 | 8.0 | 0.00 | 0.00 | 0.00 | 79 | 1007.7 |
| 20260506090009 | 65 | 55 | 2.0 | 9.0 | 0.00 | 0.00 | 0.00 | 79 | 1007.6 |
| 20260506085508 | 65 | 41 | 5.0 | 9.0 | 0.00 | 0.00 | 0.00 | 78 | 1007.6 |
| 20260506085010 | 65 | 53 | 4.0 | 10.0 | 0.00 | 0.00 | 0.00 | 78 | 1007.4 |
| 20260506084507 | 65 | 55 | 5.0 | 10.0 | 0.00 | 0.00 | 0.00 | 78 | 1007.4 |
| 20260506084006 | 65 | 46 | 5.0 | 10.0 | 0.00 | 0.00 | 0.00 | 77 | 1007.2 |
| 20260506083505 | 65 | 63 | 7.0 | 10.0 | 0.00 | 0.00 | 0.00 | 77 | 1007.4 |
| 20260506083004 | 65 | 53 | 5.0 | 11.0 | 0.00 | 0.00 | 0.00 | 77 | 1007.3 |
| 20260506082504 | 66 | 39 | 4.0 | 10.0 | 0.00 | 0.00 | 0.00 | 77 | 1007.3 |
| 20260506082003 | 66 | 29 | 6.0 | 10.0 | 0.00 | 0.00 | 0.00 | 76 | 1007.2 |
| 20260506081502 | 66 | 15 | 6.0 | 10.0 | 0.00 | 0.00 | 0.00 | 76 | 1007.1 |
| 20260506081003 | 66 | 22 | 4.0 | 8.0 | 0.00 | 0.00 | 0.00 | 76 | 1007.2 |
| 20260506080558 | 66 | 17 | 3.0 | 8.0 | 0.00 | 0.00 | 0.00 | 76 | 1007.2 |
| 20260506073053 | 67 | 9 | 5.0 | 8.0 | 0.00 | 0.00 | 0.00 | 75 | 1007.4 |
| 20260506072552 | 68 | 349 | 3.0 | 8.0 | 0.00 | 0.00 | 0.00 | 76 | 1007.4 |
| 20260506072051 | 68 | 355 | 5.0 | 9.0 | 0.00 | 0.00 | 0.00 | 76 | 1007.2 |
| 20260506071551 | 68 | 37 | 6.0 | 9.0 | 0.00 | 0.00 | 0.00 | 76 | 1007.1 |
| 20260506071048 | 69 | 344 | 2.0 | 4.0 | 0.00 | 0.00 | 0.00 | 76 | 1007.5 |
| 20260506070519 | 69 | 332 | 2.0 | 8.0 | 0.00 | 0.00 | 0.00 | 76 | 1007.5 |
| 20260506062012 | 70 | 16 | 3.0 | 6.0 | 0.00 | 0.00 | 0.00 | 75 | 1007.2 |
| 20260506061516 | 70 | 355 | 3.0 | 8.0 | 0.00 | 0.00 | 0.00 | 75 | 1007.3 |
| 20260506061011 | 70 | 360 | 4.0 | 8.0 | 0.00 | 0.00 | 0.00 | 75 | 1007.1 |
| 20260506060511 | 70 | 27 | 4.0 | 9.0 | 0.00 | 0.00 | 0.00 | 75 | 1007.1 |
| 20260506051005 | 72 | 342 | 3.0 | 10.0 | 0.00 | 0.00 | 0.00 | 74 | 1006.8 |
| 20260506050506 | 73 | 347 | 5.0 | 10.0 | 0.00 | 0.00 | 0.00 | 74 | 1006.7 |
| 20260506050503 | 73 | 340 | 5.0 | 10.0 | 0.00 | 0.00 | 0.00 | 74 | 1006.7 |
| 20260506045001 | 76 | 257 | 0.0 | 2.0 | 0.00 | 0.00 | 0.00 | 82 | 1006.6 |
| 20260506044503 | 76 | 254 | 0.0 | 0.0 | 0.00 | 0.00 | 0.00 | 82 | 1006.6 |
| 20260506044001 | 76 | 254 | 0.0 | 0.0 | 0.00 | 0.00 | 0.00 | 82 | 1006.6 |
| 20260506043501 | 76 | 254 | 0.0 | 0.0 | 0.00 | 0.00 | 0.00 | 82 | 1006.4 |
| 20260506043030 | 76 | 254 | 0.0 | 0.0 | 0.00 | 0.00 | 0.00 | 82 | 1006.4 |
| 20260506042530 | 76 | 254 | 0.0 | 2.0 | 0.00 | 0.00 | 0.00 | 82 | 1006.5 |
| 20260506042030 | 76 | 254 | 0.0 | 4.0 | 0.00 | 0.00 | 0.00 | 82 | 1006.3 |
| 20260506041529 | 76 | 254 | 1.0 | 4.0 | 0.00 | 0.00 | 0.00 | 82 | 1006.3 |
| 20260506041030 | 76 | 257 | 2.0 | 4.0 | 0.00 | 0.00 | 0.00 | 82 | 1006.3 |
| 20260506040531 | 76 | 261 | 1.0 | 3.0 | 0.00 | 0.00 | 0.00 | 83 | 1006.3 |
| 20260506040049 | 76 | 340 | 0.0 | 2.0 | 0.00 | 0.00 | 0.00 | 82 | 1006.4 |
| 20260506035526 | 76 | 340 | 0.0 | 1.0 | 0.00 | 0.00 | 0.00 | 82 | 1006.2 |
| 20260506035027 | 76 | 340 | 0.0 | 1.0 | 0.00 | 0.00 | 0.00 | 82 | 1006.1 |
| 20260506034526 | 76 | 340 | 0.0 | 1.0 | 0.00 | 0.00 | 0.00 | 82 | 1006.1 |
| 20260506034025 | 76 | 341 | 0.0 | 1.0 | 0.00 | 0.00 | 0.00 | 82 | 1005.9 |
| 20260506033525 | 76 | 341 | 0.0 | 2.0 | 0.00 | 0.00 | 0.00 | 82 | 1005.8 |
| 20260506033025 | 76 | 341 | 0.0 | 3.0 | 0.00 | 0.00 | 0.00 | 82 | 1005.9 |
| 20260506032525 | 76 | 342 | 0.0 | 6.0 | 0.00 | 0.00 | 0.00 | 82 | 1005.8 |
| 20260506032024 | 76 | 343 | 3.0 | 6.0 | 0.00 | 0.00 | 0.00 | 82 | 1005.8 |
| 20260506031538 | 76 | 342 | 3.0 | 5.0 | 0.00 | 0.00 | 0.00 | 81 | 1005.7 |
| 20260506031025 | 76 | 232 | 0.0 | 7.0 | 0.00 | 0.00 | 0.00 | 81 | 1005.5 |
| 20260506030522 | 76 | 246 | 4.0 | 7.0 | 0.00 | 0.00 | 0.00 | 81 | 1005.2 |
| 20260506030053 | 76 | 150 | 4.0 | 7.0 | 0.00 | 0.00 | 0.00 | 81 | 1004.8 |
| 20260506025554 | 77 | 207 | 4.0 | 8.0 | 0.00 | 0.00 | 0.00 | 80 | 1004.7 |
| 20260506025054 | 77 | 209 | 4.0 | 9.0 | 0.00 | 0.00 | 0.00 | 80 | 1004.8 |
| 20260506024555 | 77 | 226 | 5.0 | 9.0 | 0.00 | 0.00 | 0.00 | 80 | 1004.6 |
| 20260506024051 | 77 | 360 | 4.0 | 7.0 | 0.00 | 0.00 | 0.00 | 80 | 1004.4 |
| 20260506023551 | 77 | 195 | 3.0 | 6.0 | 0.00 | 0.00 | 0.00 | 80 | 1004.3 |
| 20260506023048 | 77 | 215 | 2.0 | 6.0 | 0.00 | 0.00 | 0.00 | 80 | 1004.2 |
| 20260506022548 | 77 | 185 | 4.0 | 9.0 | 0.00 | 0.00 | 0.00 | 79 | 1004.1 |
| 20260506022048 | 77 | 211 | 4.0 | 9.0 | 0.00 | 0.00 | 0.00 | 79 | 1003.8 |
| 20260506021556 | 77 | 360 | 4.0 | 7.0 | 0.00 | 0.00 | 0.00 | 79 | 1003.9 |
| 20260506021047 | 77 | 175 | 4.0 | 9.0 | 0.00 | 0.00 | 0.00 | 79 | 1004.0 |
| 20260506020547 | 77 | 181 | 5.0 | 9.0 | 0.00 | 0.00 | 0.00 | 79 | 1003.8 |
| 20260506020047 | 78 | 176 | 5.0 | 9.0 | 0.00 | 0.00 | 0.00 | 79 | 1003.8 |
| 20260506015548 | 78 | 146 | 6.0 | 11.0 | 0.00 | 0.00 | 0.00 | 79 | 1003.8 |
| 20260506015047 | 78 | 197 | 6.0 | 12.0 | 0.00 | 0.00 | 0.00 | 79 | 1003.9 |
| 20260506014546 | 78 | 186 | 6.0 | 12.0 | 0.00 | 0.00 | 0.00 | 78 | 1003.9 |
| 20260506014050 | 78 | 186 | 6.0 | 10.0 | 0.00 | 0.00 | 0.00 | 78 | 1003.8 |
| 20260506013546 | 78 | 202 | 5.0 | 10.0 | 0.00 | 0.00 | 0.00 | 78 | 1003.9 |
| 20260506013047 | 78 | 182 | 6.0 | 9.0 | 0.00 | 0.00 | 0.00 | 78 | 1003.6 |
| 20260506012544 | 78 | 181 | 5.0 | 10.0 | 0.00 | 0.00 | 0.00 | 78 | 1003.4 |
| 20260506012042 | 79 | 186 | 5.0 | 10.0 | 0.00 | 0.00 | 0.00 | 77 | 1003.5 |
| 20260506011543 | 79 | 178 | 5.0 | 12.0 | 0.00 | 0.00 | 0.00 | 77 | 1003.6 |
| 20260506011043 | 79 | 211 | 6.0 | 12.0 | 0.00 | 0.00 | 0.00 | 76 | 1003.5 |
| 20260506010543 | 79 | 173 | 6.0 | 12.0 | 0.00 | 0.00 | 0.00 | 76 | 1003.5 |
| 20260506010044 | 79 | 175 | 6.0 | 11.0 | 0.00 | 0.00 | 0.00 | 76 | 1003.6 |
| 20260506005541 | 79 | 186 | 7.0 | 12.0 | 0.00 | 0.00 | 0.00 | 76 | 1003.7 |
| 20260506005042 | 79 | 184 | 8.0 | 14.0 | 0.00 | 0.00 | 0.00 | 76 | 1003.6 |
| 20260506004542 | 80 | 169 | 6.0 | 10.0 | 0.00 | 0.00 | 0.00 | 75 | 1003.6 |
| 20260506004041 | 80 | 188 | 6.0 | 11.0 | 0.00 | 0.00 | 0.00 | 75 | 1003.6 |
| 20260506003541 | 80 | 195 | 7.0 | 14.0 | 0.00 | 0.00 | 0.00 | 75 | 1003.5 |
| 20260506003044 | 80 | 175 | 8.0 | 14.0 | 0.00 | 0.00 | 0.00 | 74 | 1003.5 |
| 20260506002510 | 80 | 165 | 8.0 | 15.0 | 0.00 | 0.00 | 0.00 | 74 | 1003.4 |
| 20260506002010 | 80 | 197 | 8.0 | 15.0 | 0.00 | 0.00 | 0.00 | 74 | 1003.5 |
| 20260506001510 | 81 | 183 | 7.0 | 16.0 | 0.00 | 0.00 | 0.00 | 74 | 1003.4 |
| 20260506001011 | 81 | 175 | 6.0 | 16.0 | 0.00 | 0.00 | 0.00 | 73 | 1003.3 |
| 20260506000510 | 81 | 184 | 7.0 | 14.0 | 0.00 | 0.00 | 0.00 | 73 | 1003.3 |
| 20260506000009 | 81 | 209 | 7.0 | 14.0 | 0.00 | 0.00 | 0.00 | 73 | 1003.4 |
| 20260505235504 | 81 | 194 | 6.0 | 16.0 | 0.00 | 0.00 | 0.00 | 72 | 1003.4 |
| 20260505235005 | 81 | 192 | 9.0 | 18.0 | 0.00 | 0.00 | 0.00 | 72 | 1003.3 |
| 20260505234505 | 82 | 192 | 10.0 | 18.0 | 0.00 | 0.00 | 0.00 | 71 | 1003.4 |
| 20260505234005 | 82 | 180 | 8.0 | 13.0 | 0.00 | 0.00 | 0.00 | 71 | 1003.3 |
| 20260505233504 | 82 | 202 | 9.0 | 16.0 | 0.00 | 0.00 | 0.00 | 71 | 1003.0 |
| 20260505233004 | 82 | 180 | 8.0 | 16.0 | 0.00 | 0.00 | 0.00 | 71 | 1003.2 |
| 20260505232507 | 83 | 194 | 8.0 | 17.0 | 0.00 | 0.00 | 0.00 | 71 | 1003.3 |
| 20260505232004 | 83 | 209 | 8.0 | 16.0 | 0.00 | 0.00 | 0.00 | 71 | 1003.2 |
| 20260505231504 | 83 | 202 | 10.0 | 16.0 | 0.00 | 0.00 | 0.00 | 71 | 1003.1 |
| 20260505231004 | 83 | 190 | 8.0 | 14.0 | 0.00 | 0.00 | 0.00 | 71 | 1003.0 |
| 20260505230503 | 82 | 185 | 9.0 | 18.0 | 0.00 | 0.00 | 0.00 | 71 | 1003.0 |
| 20260505230003 | 82 | 180 | 11.0 | 16.0 | 0.00 | 0.00 | 0.00 | 71 | 1002.8 |
| 20260505225533 | 82 | 193 | 10.0 | 16.0 | 0.00 | 0.00 | 0.00 | 71 | 1002.7 |
| 20260505225033 | 82 | 182 | 9.0 | 15.0 | 0.00 | 0.00 | 0.00 | 71 | 1002.8 |
| 20260505224533 | 82 | 169 | 8.0 | 15.0 | 0.00 | 0.00 | 0.00 | 71 | 1003.0 |
| 20260505224032 | 83 | 200 | 8.0 | 15.0 | 0.00 | 0.00 | 0.00 | 71 | 1003.1 |
| 20260505223532 | 83 | 163 | 6.0 | 16.0 | 0.00 | 0.00 | 0.00 | 71 | 1002.9 |
| 20260505223036 | 83 | 176 | 8.0 | 16.0 | 0.00 | 0.00 | 0.00 | 72 | 1003.0 |
| 20260505222506 | 83 | 167 | 6.0 | 13.0 | 0.00 | 0.00 | 0.00 | 72 | 1003.0 |
| 20260505222001 | 83 | 205 | 6.0 | 13.0 | 0.00 | 0.00 | 0.00 | 71 | 1002.9 |
| 20260505221501 | 83 | 178 | 7.0 | 13.0 | 0.00 | 0.00 | 0.00 | 70 | 1002.9 |
| 20260505221001 | 83 | 184 | 7.0 | 13.0 | 0.00 | 0.00 | 0.00 | 71 | 1003.0 |
| 20260505220501 | 83 | 194 | 6.0 | 17.0 | 0.00 | 0.00 | 0.00 | 71 | 1003.0 |
| 20260505220100 | 83 | 182 | 8.0 | 19.0 | 0.00 | 0.00 | 0.00 | 71 | 1002.7 |
| 20260505220001 | 83 | 180 | 8.0 | 19.0 | 0.00 | 0.00 | 0.00 | 70 | 1002.7 |
| 20260505215558 | 83 | 186 | 8.0 | 14.0 | 0.00 | 0.00 | 0.00 | 70 | 1002.8 |
| 20260505215058 | 83 | 193 | 9.0 | 16.0 | 0.00 | 0.00 | 0.00 | 70 | 1002.8 |
| 20260505214600 | 84 | 173 | 6.0 | 14.0 | 0.00 | 0.00 | 0.00 | 70 | 1002.8 |
| 20260505214058 | 84 | 202 | 7.0 | 17.0 | 0.00 | 0.00 | 0.00 | 71 | 1002.8 |
| 20260505213557 | 84 | 195 | 8.0 | 15.0 | 0.00 | 0.00 | 0.00 | 71 | 1003.1 |
| 20260505213059 | 84 | 166 | 7.0 | 19.0 | 0.00 | 0.00 | 0.00 | 70 | 1002.9 |
| 20260505212556 | 84 | 184 | 10.0 | 18.0 | 0.00 | 0.00 | 0.00 | 70 | 1003.1 |
| 20260505212056 | 84 | 185 | 9.0 | 17.0 | 0.00 | 0.00 | 0.00 | 69 | 1003.1 |
| 20260505211610 | 84 | 224 | 10.0 | 17.0 | 0.00 | 0.00 | 0.00 | 69 | 1002.9 |
| 20260505211056 | 84 | 200 | 7.0 | 17.0 | 0.00 | 0.00 | 0.00 | 70 | 1002.9 |
| 20260505210557 | 85 | 193 | 10.0 | 17.0 | 0.00 | 0.00 | 0.00 | 68 | 1003.0 |
| 20260505210059 | 85 | 185 | 7.0 | 12.0 | 0.00 | 0.00 | 0.00 | 70 | 1003.0 |
| 20260505205555 | 85 | 182 | 6.0 | 13.0 | 0.00 | 0.00 | 0.00 | 69 | 1003.3 |
| 20260505205055 | 85 | 178 | 6.0 | 13.0 | 0.00 | 0.00 | 0.00 | 69 | 1003.2 |
| 20260505204552 | 85 | 222 | 7.0 | 13.0 | 0.00 | 0.00 | 0.00 | 68 | 1003.4 |
| 20260505204049 | 85 | 360 | 5.0 | 13.0 | 0.00 | 0.00 | 0.00 | 69 | 1003.4 |
| 20260505203552 | 85 | 190 | 8.0 | 13.0 | 0.00 | 0.00 | 0.00 | 68 | 1003.6 |
| 20260505203050 | 85 | 188 | 8.0 | 14.0 | 0.00 | 0.00 | 0.00 | 69 | 1003.5 |
| 20260505202549 | 84 | 216 | 7.0 | 13.0 | 0.00 | 0.00 | 0.00 | 68 | 1003.7 |
| 20260505202049 | 84 | 200 | 10.0 | 16.0 | 0.00 | 0.00 | 0.00 | 67 | 1003.8 |
| 20260505201546 | 84 | 218 | 9.0 | 16.0 | 0.00 | 0.00 | 0.00 | 67 | 1003.8 |
| 20260505201045 | 84 | 215 | 9.0 | 16.0 | 0.00 | 0.00 | 0.00 | 68 | 1003.7 |
| 20260505200545 | 84 | 191 | 9.0 | 16.0 | 0.00 | 0.00 | 0.00 | 68 | 1003.9 |
| 20260505200048 | 84 | 208 | 8.0 | 16.0 | 0.00 | 0.00 | 0.00 | 69 | 1003.8 |
| 20260505195544 | 83 | 178 | 9.0 | 15.0 | 0.00 | 0.00 | 0.00 | 70 | 1003.8 |
| 20260505195013 | 83 | 207 | 11.0 | 17.0 | 0.00 | 0.00 | 0.00 | 68 | 1003.7 |
| 20260505194514 | 83 | 213 | 11.0 | 17.0 | 0.00 | 0.00 | 0.00 | 68 | 1003.7 |
| 20260505194021 | 84 | 182 | 11.0 | 19.0 | 0.00 | 0.00 | 0.00 | 69 | 1003.7 |
| 20260505193511 | 84 | 167 | 11.0 | 19.0 | 0.00 | 0.00 | 0.00 | 68 | 1003.6 |
| 20260505193011 | 84 | 217 | 12.0 | 23.0 | 0.00 | 0.00 | 0.00 | 67 | 1003.7 |
| 20260505192514 | 83 | 211 | 15.0 | 23.0 | 0.00 | 0.00 | 0.00 | 68 | 1003.8 |
| 20260505192006 | 83 | 171 | 12.0 | 19.0 | 0.00 | 0.00 | 0.00 | 68 | 1003.9 |
| 20260505191507 | 83 | 192 | 14.0 | 19.0 | 0.00 | 0.00 | 0.00 | 68 | 1004.0 |
| 20260505191009 | 83 | 200 | 14.0 | 19.0 | 0.00 | 0.00 | 0.00 | 69 | 1004.1 |
| 20260505190504 | 82 | 197 | 12.0 | 18.0 | 0.00 | 0.00 | 0.00 | 68 | 1004.2 |
| 20260505190003 | 82 | 200 | 11.0 | 20.0 | 0.00 | 0.00 | 0.00 | 69 | 1004.4 |
| 20260505185502 | 82 | 215 | 12.0 | 22.0 | 0.00 | 0.00 | 0.00 | 69 | 1004.4 |
| 20260505185002 | 82 | 217 | 14.0 | 22.0 | 0.00 | 0.00 | 0.00 | 69 | 1004.4 |
| 20260505184501 | 82 | 200 | 12.0 | 19.0 | 0.00 | 0.00 | 0.00 | 69 | 1004.5 |
| 20260505184101 | 82 | 185 | 11.0 | 19.0 | 0.00 | 0.00 | 0.00 | 70 | 1004.5 |
| 20260505183603 | 82 | 223 | 11.0 | 19.0 | 0.00 | 0.00 | 0.00 | 69 | 1004.6 |
| 20260505183058 | 81 | 227 | 13.0 | 20.0 | 0.00 | 0.00 | 0.00 | 71 | 1004.6 |
| 20260505182558 | 81 | 206 | 12.0 | 20.0 | 0.00 | 0.00 | 0.00 | 70 | 1004.6 |
| 20260505182028 | 81 | 206 | 10.0 | 18.0 | 0.00 | 0.00 | 0.00 | 71 | 1004.5 |
| 20260505181529 | 81 | 360 | 10.0 | 21.0 | 0.00 | 0.00 | 0.00 | 71 | 1004.6 |
| 20260505181026 | 81 | 195 | 13.0 | 22.0 | 0.00 | 0.00 | 0.00 | 70 | 1004.7 |
| 20260505180527 | 81 | 183 | 14.0 | 22.0 | 0.00 | 0.00 | 0.00 | 70 | 1004.6 |
| 20260505180028 | 80 | 179 | 11.0 | 22.0 | 0.00 | 0.00 | 0.00 | 72 | 1004.6 |
| 20260505175526 | 80 | 215 | 13.0 | 24.0 | 0.00 | 0.00 | 0.00 | 71 | 1004.4 |
| 20260505175057 | 80 | 186 | 16.0 | 24.0 | 0.00 | 0.00 | 0.00 | 72 | 1004.4 |
| 20260505174602 | 79 | 203 | 16.0 | 24.0 | 0.00 | 0.00 | 0.00 | 72 | 1004.4 |
| 20260505174100 | 80 | 205 | 14.0 | 21.0 | 0.00 | 0.00 | 0.00 | 72 | 1004.6 |
| 20260505173553 | 80 | 201 | 10.0 | 20.0 | 0.00 | 0.00 | 0.00 | 74 | 1004.5 |
| 20260505173052 | 79 | 186 | 13.0 | 23.0 | 0.00 | 0.00 | 0.00 | 74 | 1004.5 |
| 20260505172549 | 78 | 189 | 14.0 | 23.0 | 0.00 | 0.00 | 0.00 | 74 | 1004.5 |
| 20260505172021 | 78 | 232 | 15.0 | 22.0 | 0.00 | 0.00 | 0.00 | 73 | 1004.6 |
| 20260505171523 | 78 | 226 | 16.0 | 22.0 | 0.00 | 0.00 | 0.00 | 74 | 1004.8 |
| 20260505171019 | 78 | 225 | 13.0 | 24.0 | 0.00 | 0.00 | 0.00 | 74 | 1004.7 |
| 20260505170519 | 78 | 215 | 12.0 | 24.0 | 0.00 | 0.00 | 0.00 | 74 | 1004.7 |
| 20260505170020 | 78 | 217 | 15.0 | 20.0 | 0.00 | 0.00 | 0.00 | 74 | 1004.8 |
| 20260505165518 | 78 | 225 | 13.0 | 21.0 | 0.00 | 0.00 | 0.00 | 74 | 1004.8 |
| 20260505165016 | 78 | 238 | 14.0 | 21.0 | 0.00 | 0.00 | 0.00 | 74 | 1004.8 |
| 20260505164515 | 78 | 230 | 13.0 | 25.0 | 0.00 | 0.00 | 0.00 | 74 | 1004.8 |
| 20260505164025 | 77 | 209 | 17.0 | 25.0 | 0.00 | 0.00 | 0.00 | 74 | 1004.6 |
| 20260505163514 | 78 | 220 | 15.0 | 22.0 | 0.00 | 0.00 | 0.00 | 74 | 1004.5 |
| 20260505163013 | 78 | 223 | 14.0 | 26.0 | 0.00 | 0.00 | 0.00 | 74 | 1004.4 |
| 20260505162512 | 78 | 215 | 16.0 | 26.0 | 0.00 | 0.00 | 0.00 | 74 | 1004.5 |
| 20260505162011 | 77 | 232 | 15.0 | 25.0 | 0.00 | 0.00 | 0.00 | 75 | 1004.6 |
| 20260505161512 | 78 | 200 | 15.0 | 27.0 | 0.00 | 0.00 | 0.00 | 75 | 1004.5 |
| 20260505161014 | 78 | 226 | 14.0 | 27.0 | 0.00 | 0.00 | 0.00 | 75 | 1004.6 |
| 20260505160511 | 77 | 202 | 15.0 | 24.0 | 0.00 | 0.00 | 0.00 | 74 | 1004.7 |
| 20260505153031 | 75 | 206 | 15.0 | 21.0 | 0.00 | 0.00 | 0.00 | 77 | 1005.0 |
| 20260505152531 | 75 | 208 | 13.0 | 23.0 | 0.00 | 0.00 | 0.00 | 79 | 1004.9 |
| 20260505152030 | 74 | 223 | 12.0 | 20.0 | 0.00 | 0.00 | 0.00 | 79 | 1005.0 |
| 20260505151526 | 75 | 229 | 11.0 | 21.0 | 0.00 | 0.00 | 0.00 | 79 | 1005.0 |
| 20260505151025 | 74 | 218 | 14.0 | 24.0 | 0.00 | 0.00 | 0.00 | 80 | 1004.9 |
| 20260505150524 | 74 | 209 | 13.0 | 23.0 | 0.00 | 0.00 | 0.00 | 80 | 1005.1 |
| 20260505140513 | 72 | 196 | 13.0 | 20.0 | 0.00 | 0.00 | 0.00 | 81 | 1005.0 |
| 20260505124610 | 71 | 199 | 9.0 | 16.0 | 0.00 | 0.00 | 0.00 | 84 | 1004.5 |
| 20260505124058 | 71 | 195 | 9.0 | 16.0 | 0.00 | 0.00 | 0.00 | 84 | 1004.4 |
| 20260505123557 | 70 | 183 | 7.0 | 16.0 | 0.00 | 0.00 | 0.00 | 84 | 1004.3 |
| 20260505123101 | 70 | 213 | 10.0 | 16.0 | 0.00 | 0.00 | 0.00 | 84 | 1004.4 |
| 20260505122556 | 70 | 203 | 8.0 | 12.0 | 0.00 | 0.00 | 0.00 | 84 | 1004.2 |
| 20260505122057 | 70 | 215 | 8.0 | 13.0 | 0.00 | 0.00 | 0.00 | 84 | 1004.2 |
| 20260505121556 | 70 | 228 | 8.0 | 15.0 | 0.00 | 0.00 | 0.00 | 84 | 1004.2 |
| 20260505121056 | 70 | 227 | 8.0 | 15.0 | 0.00 | 0.00 | 0.00 | 84 | 1004.0 |
| 20260505120551 | 70 | 207 | 8.0 | 14.0 | 0.00 | 0.00 | 0.00 | 84 | 1003.9 |
| 20260505120108 | 70 | 212 | 9.0 | 13.0 | 0.00 | 0.00 | 0.00 | 84 | 1004.0 |
| 20260505115551 | 70 | 215 | 8.0 | 13.0 | 0.00 | 0.00 | 0.00 | 84 | 1003.9 |
| 20260505115055 | 70 | 192 | 9.0 | 14.0 | 0.00 | 0.00 | 0.00 | 84 | 1004.1 |
| 20260505114551 | 70 | 200 | 9.0 | 18.0 | 0.00 | 0.00 | 0.00 | 84 | 1004.2 |
| 20260505114050 | 70 | 198 | 7.0 | 18.0 | 0.00 | 0.00 | 0.00 | 84 | 1004.0 |
| 20260505113550 | 70 | 209 | 9.0 | 18.0 | 0.00 | 0.00 | 0.00 | 84 | 1003.9 |
| 20260505113054 | 70 | 211 | 10.0 | 16.0 | 0.00 | 0.00 | 0.00 | 84 | 1003.9 |